[[{"header":{"parameterUnit":"m.s-1","parameterCategory":2,"la1":30.2992,"la2":30.254,"lo1":-89.0895,"lo2":-89.0443,"dy":0.0025,"dx":0.0025,"nx":19,"ny":19,"refTime":"2026-04-23T21:00:00:Z","depth":"0","parameterNumber":2,"parameterNumberName":"U-component_of_CURRENTS"},"data":[0,0,0,0.3022,0.3023,0.3063,0.3062,0.3057,0.3057,0,0,0,0,0,0,0,0,0,0,0,0.2999,0.2999,0.3021,0.3023,0.3063,0.3062,0.3057,0.3057,0,0,0,0,0,0,0,0,0,0,0,0.2998,0.2999,0.3,0.3024,0.3063,0.3062,0.3057,0.3035,0,0,0,0,0,0,0,0,0,0,0.3001,0.2969,0.2999,0.3,0.3024,0.3063,0.3062,0.3034,0.3036,0.3031,0,0.3053,0,0.307,0.3058,0.3058,0,0,0,0.2997,0.2967,0.3014,0.3,0.3025,0.3063,0.3037,0.3035,0.3038,0.3034,0.3053,0.3053,0.307,0.3058,0.3058,0.3081,0.3081,0,0,0.2995,0.2966,0.3012,0.3016,0.3055,0.3036,0.3039,0.3037,0.3025,0.3053,0.3054,0.307,0.3058,0.3058,0.308,0.3081,0,0,0,0.3007,0.2964,0.301,0.3015,0.3036,0.3038,0.3041,0.3024,0.3051,0.3054,0.307,0.3058,0.3058,0.308,0.3081,0.3068,0,0,0,0.3004,0.2974,0.301,0.2987,0.3037,0.3032,0.3028,0.305,0.3051,0.307,0.3058,0.3058,0.308,0.308,0.3068,0.3054,0,0,0,0.2993,0.2971,0.2991,0.2986,0.3021,0.3033,0.3057,0.3051,0.3062,0.3058,0.3058,0.308,0.308,0.3068,0.3054,0.3059,0,0,0,0.2941,0.2942,0.2989,0.2987,0.3021,0.3048,0.3057,0.3061,0.3057,0.3058,0.308,0.3081,0.3068,0.3054,0.3059,0.3049,0.3048,0,0,0.291,0.2936,0.2936,0.2982,0.2993,0.304,0.304,0.3045,0.3062,0.3072,0.3073,0.3068,0.3054,0.3059,0.3072,0.307,0,0,0,0.2906,0.2903,0.2914,0.2935,0.2982,0.3007,0.3033,0.3057,0.3075,0.3069,0.308,0.3071,0.3075,0.307,0.3068,0.3064,0.3082,0.3082,0.3082,0.2789,0.2839,0.2824,0.2883,0.291,0.2984,0.3007,0.3047,0.3066,0.3085,0.307,0.3076,0.3071,0.307,0.3066,0.3086,0.3086,0.3086,0.3086,0.27,0.2685,0.275,0.2752,0.283,0.2851,0.2969,0.3014,0.3063,0.3077,0.3081,0.3068,0.3067,0.3064,0.3085,0.3085,0.3085,0.3085,0.3085,0.2592,0.2595,0.261,0.2626,0.2671,0.2775,0.2848,0.2956,0.3035,0.3052,0.3058,0.3058,0.3048,0.306,0.306,0.306,0.306,0.306,0.306,0.2468,0.2493,0.2474,0.2497,0.2522,0.2609,0.278,0.2858,0.2979,0.304,0.3041,0.3051,0.3068,0.306,0.3059,0.3059,0.3059,0.3059,0.3059,0.2414,0.2392,0.2365,0.2371,0.2402,0.2422,0.2613,0.2789,0.2881,0.2939,0.3027,0.3041,0.3043,0.3045,0.3037,0.3029,0.3029,0.3029,0.3029,0.2382,0.2358,0.2325,0.2302,0.229,0.2353,0.2399,0.2584,0.2842,0.294,0.3013,0.3016,0.3017,0.3019,0.3021,0.3012,0.2999,0.2999,0.2999,0.242,0.2378,0.2364,0.2271,0.2241,0.2249,0.2248,0.2371,0.2765,0.2998,0.301,0.3011,0.3016,0.3018,0.3022,0.3025,0.3012,0,0]},{"header":{"parameterUnit":"m.s-1","parameterCategory":2,"la1":30.2992,"la2":30.254,"lo1":-89.0895,"lo2":-89.0443,"dy":0.0025,"dx":0.0025,"nx":19,"ny":19,"refTime":"2026-04-23T21:00:00:Z","depth":"0","parameterNumber":3,"parameterNumberName":"V-component_of_CURRENTS"},"data":[0,0,0,0.0206,0.0206,0.0146,0.0146,0.0035,0.0034,0,0,0,0,0,0,0,0,0,0,0,0.0231,0.0231,0.0207,0.0205,0.0146,0.0146,0.0035,0.0034,0,0,0,0,0,0,0,0,0,0,0,0.0231,0.0231,0.0231,0.0205,0.0146,0.0146,0.0035,0.0086,0,0,0,0,0,0,0,0,0,0,0.0147,0.0185,0.0231,0.0231,0.0205,0.0146,0.0145,0.0089,0.0083,0.0055,0,0.0057,0,0.0045,0.0027,0.0026,0,0,0,0.0194,0.019,0.0169,0.0231,0.0205,0.0146,0.017,0.0086,0.0079,0.0047,0.0056,0.0052,0.0043,0.0026,0.0025,-0.0003,-0.0002,0,0,0.0198,0.0219,0.0174,0.0166,0.0202,0.0172,0.0168,0.0082,0.0082,0.0055,0.0049,0.0041,0.0025,0.0024,-0.0003,-0.0003,0,0,0,0.0215,0.0222,0.0204,0.017,0.0163,0.017,0.0166,0.0086,0.0079,0.0048,0.004,0.0025,0.0023,-0.0004,-0.0003,0.0119,0,0,0,0.0216,0.0232,0.0206,0.0218,0.0165,0.013,0.0172,0.0086,0.0075,0.004,0.0025,0.0022,-0.0004,-0.0003,0.0115,0.0182,0,0,0,0.0232,0.0234,0.023,0.0219,0.0197,0.0131,0.0119,0.0083,0.0071,0.0026,0.0022,-0.0005,-0.0004,0.0111,0.0174,0.0216,0,0,0,0.025,0.0282,0.0231,0.0261,0.0198,0.0192,0.012,0.0101,0.0072,0.0024,-0.0004,-0.0003,0.0109,0.017,0.0212,0.0306,0.0334,0,0,0.0307,0.0289,0.0307,0.0261,0.0287,0.0198,0.0223,0.0149,0.0078,0.0018,0.0017,0.0116,0.0174,0.0215,0.0373,0.04,0,0,0,0.0336,0.0353,0.0351,0.0349,0.0316,0.0304,0.0222,0.0189,0.0142,0.0067,0.0106,0.0138,0.0161,0.0207,0.0228,0.0138,0.0002,0.0002,0.0002,0.0444,0.0422,0.0461,0.0435,0.0421,0.0371,0.0359,0.0295,0.021,0.0211,0.023,0.0336,0.0388,0.0405,0.0311,0.0212,0.0212,0.0213,0.0213,0.0541,0.0563,0.0539,0.0564,0.0534,0.0533,0.0482,0.0438,0.0413,0.0329,0.0344,0.0324,0.0435,0.0326,0.0221,0.0219,0.0218,0.0218,0.0217,0.0605,0.0616,0.0621,0.0648,0.068,0.0646,0.0703,0.064,0.0537,0.0556,0.0562,0.0561,0.047,0.0551,0.0552,0.0552,0.0553,0.0553,0.0553,0.0663,0.0672,0.0718,0.0743,0.078,0.0839,0.0834,0.0832,0.079,0.0713,0.0712,0.0507,0.0439,0.0431,0.0561,0.056,0.0559,0.0558,0.0557,0.0758,0.0736,0.0815,0.0859,0.0959,0.1081,0.107,0.1101,0.1049,0.1051,0.0772,0.0779,0.0744,0.0726,0.0725,0.0923,0.0923,0.0923,0.0923,0.0818,0.0813,0.0916,0.1006,0.112,0.1202,0.1363,0.1359,0.1142,0.1005,0.0869,0.0804,0.0793,0.0754,0.0735,0.073,0.0924,0.0924,0.0924,0.0901,0.091,0.1005,0.106,0.1192,0.1341,0.1514,0.1593,0.1233,0.0907,0.0728,0.0728,0.0606,0.0597,0.0509,0.0491,0.047,0,0]}],[{"header":{"parameterUnit":"m.s-1","parameterCategory":2,"la1":30.2992,"la2":30.254,"lo1":-89.0895,"lo2":-89.0443,"dy":0.0025,"dx":0.0025,"nx":19,"ny":19,"refTime":"2026-04-23T21:00:00:Z","depth":"2","parameterNumber":2,"parameterNumberName":"U-component_of_CURRENTS"},"data":[0,0,0,0.2646,0.2649,0.2755,0.2755,0.2807,0.2807,0,0,0,0,0,0,0,0,0,0,0,0.2586,0.2587,0.2645,0.2649,0.2755,0.2755,0.2806,0.2807,0,0,0,0,0,0,0,0,0,0,0,0.2585,0.2586,0.2587,0.265,0.2755,0.2755,0.2806,0.2741,0,0,0,0,0,0,0,0,0,0,0.2645,0.2631,0.2586,0.2587,0.2651,0.2755,0.2755,0.2738,0.2745,0.2744,0,0.2768,0,0.2811,0.2811,0.2812,0,0,0,0.2621,0.2625,0.2645,0.2588,0.2652,0.2755,0.2699,0.2742,0.275,0.2752,0.2769,0.2772,0.2812,0.2812,0.2812,0.2871,0.2871,0,0,0.2615,0.2611,0.2641,0.265,0.2689,0.2696,0.2703,0.2747,0.2762,0.2769,0.2774,0.2813,0.2812,0.2813,0.2871,0.2871,0,0,0,0.2617,0.2607,0.2627,0.2647,0.2686,0.27,0.2708,0.276,0.2765,0.2775,0.2813,0.2812,0.2813,0.287,0.2871,0.2873,0,0,0,0.2612,0.261,0.2624,0.2623,0.2686,0.2743,0.2719,0.276,0.2768,0.2813,0.2812,0.2814,0.287,0.2871,0.2872,0.2868,0,0,0,0.2579,0.2608,0.262,0.2623,0.2683,0.2743,0.275,0.2763,0.2792,0.2812,0.2814,0.287,0.287,0.2872,0.2868,0.2883,0,0,0,0.2568,0.2582,0.262,0.265,0.2683,0.2731,0.2751,0.2798,0.2815,0.2813,0.287,0.2871,0.2872,0.2868,0.2882,0.2843,0.2842,0,0,0.2569,0.2582,0.2596,0.2633,0.2657,0.2714,0.2752,0.2791,0.2818,0.2844,0.2846,0.2873,0.2868,0.2883,0.2868,0.2866,0,0,0,0.2585,0.2579,0.2594,0.263,0.2684,0.2725,0.2782,0.2815,0.286,0.284,0.2881,0.2878,0.2887,0.2863,0.2862,0.2873,0.2873,0.2873,0.2872,0.2515,0.2553,0.2561,0.2601,0.2646,0.274,0.2776,0.2832,0.2858,0.2889,0.2886,0.2906,0.288,0.2879,0.2896,0.2896,0.2896,0.2896,0.2896,0.2455,0.2452,0.2515,0.2532,0.2608,0.2657,0.2776,0.2823,0.2889,0.2904,0.2913,0.2874,0.2878,0.2896,0.2896,0.2896,0.2896,0.2896,0.2896,0.2376,0.2384,0.2411,0.245,0.2512,0.2615,0.2696,0.2803,0.2884,0.2905,0.2892,0.2892,0.2904,0.2919,0.2919,0.2919,0.2919,0.2919,0.2919,0.2285,0.2316,0.2317,0.2359,0.2396,0.2492,0.2661,0.2734,0.2843,0.2891,0.2891,0.2914,0.2913,0.2906,0.292,0.292,0.292,0.292,0.292,0.2233,0.223,0.2225,0.2248,0.2303,0.2323,0.251,0.2662,0.2754,0.2796,0.2884,0.2884,0.288,0.2881,0.2873,0.2878,0.2878,0.2878,0.2878,0.2196,0.2188,0.2179,0.218,0.2189,0.2255,0.2278,0.2404,0.261,0.2676,0.2684,0.2653,0.266,0.2642,0.2648,0.2635,0.2577,0.2577,0.2576,0.2204,0.2186,0.2178,0.2138,0.2135,0.2144,0.2105,0.2095,0.2297,0.2558,0.2573,0.2869,0.2847,0.2849,0.2841,0.2843,0.283,0,0]},{"header":{"parameterUnit":"m.s-1","parameterCategory":2,"la1":30.2992,"la2":30.254,"lo1":-89.0895,"lo2":-89.0443,"dy":0.0025,"dx":0.0025,"nx":19,"ny":19,"refTime":"2026-04-23T21:00:00:Z","depth":"2","parameterNumber":3,"parameterNumberName":"V-component_of_CURRENTS"},"data":[0,0,0,0.0159,0.0158,0.0092,0.0091,-0.0017,-0.0017,0,0,0,0,0,0,0,0,0,0,0,0.0187,0.0186,0.0159,0.0158,0.0092,0.0091,-0.0016,-0.0017,0,0,0,0,0,0,0,0,0,0,0,0.0187,0.0186,0.0186,0.0157,0.0092,0.0091,-0.0016,0.0037,0,0,0,0,0,0,0,0,0,0,0.0102,0.0136,0.0186,0.0186,0.0157,0.0092,0.0091,0.0039,0.0033,0.001,0,0.0012,0,-0.0003,-0.0024,-0.0025,0,0,0,0.0146,0.0141,0.0124,0.0186,0.0157,0.0092,0.0118,0.0036,0.0029,0.0002,0.001,0.0006,-0.0005,-0.0025,-0.0025,-0.0046,-0.0046,0,0,0.015,0.0168,0.0129,0.0121,0.0154,0.012,0.0116,0.0032,0.003,0.001,0.0003,-0.0007,-0.0025,-0.0026,-0.0047,-0.0046,0,0,0,0.0168,0.0171,0.0156,0.0125,0.0116,0.0119,0.0114,0.0033,0.003,0.0002,-0.0008,-0.0026,-0.0027,-0.0047,-0.0047,0.006,0,0,0,0.017,0.0182,0.0159,0.0168,0.0119,0.0077,0.0118,0.0036,0.0025,-0.0008,-0.0026,-0.0028,-0.0048,-0.0047,0.0056,0.0117,0,0,0,0.0187,0.0183,0.0181,0.0169,0.0145,0.0078,0.0069,0.0033,0.0019,-0.0025,-0.0029,-0.0048,-0.0047,0.0052,0.011,0.0146,0,0,0,0.02,0.0225,0.0182,0.0205,0.0146,0.0139,0.0069,0.0047,0.0017,-0.0027,-0.0048,-0.0047,0.0051,0.0106,0.0142,0.0207,0.0231,0,0,0.0244,0.0231,0.0245,0.0206,0.0227,0.0146,0.0164,0.009,0.0027,-0.0026,-0.0026,0.0057,0.011,0.0145,0.0278,0.0301,0,0,0,0.0268,0.0282,0.028,0.0278,0.025,0.0237,0.0159,0.0127,0.0084,0.0016,0.0052,0.0082,0.0101,0.0132,0.0149,-0.0041,-0.0041,-0.0041,-0.0041,0.0356,0.0339,0.0372,0.0352,0.034,0.0295,0.0281,0.0223,0.0147,0.0149,0.0165,0.0263,0.0297,0.0311,0.0151,0.0152,0.0152,0.0153,0.0153,0.0438,0.0456,0.044,0.0463,0.044,0.0439,0.0393,0.0352,0.0329,0.0256,0.0268,0.0238,0.0337,0.0161,0.016,0.0158,0.0158,0.0157,0.0156,0.0495,0.0502,0.0512,0.0541,0.0572,0.0542,0.0594,0.0538,0.0441,0.0457,0.0452,0.045,0.0327,0.0453,0.0453,0.0454,0.0454,0.0455,0.0455,0.0539,0.0552,0.0598,0.0627,0.0663,0.0719,0.0717,0.0711,0.0661,0.0585,0.0584,0.0363,0.0353,0.0343,0.0462,0.0461,0.046,0.0459,0.0459,0.0589,0.0594,0.0669,0.0717,0.0822,0.0932,0.0927,0.0936,0.0887,0.0875,0.0641,0.0634,0.0602,0.0587,0.0582,0.0755,0.0755,0.0755,0.0755,0.0619,0.0628,0.0733,0.0832,0.0953,0.1035,0.1161,0.112,0.0974,0.0852,0.0847,0.0797,0.0784,0.0757,0.0738,0.0732,0.0945,0.0945,0.0946,0.0648,0.0678,0.0761,0.086,0.1008,0.1149,0.1273,0.1243,0.1021,0.0949,0.0839,0.0776,0.0687,0.0672,0.0611,0.0588,0.0571,0,0]}],[{"header":{"parameterUnit":"m.s-1","parameterCategory":2,"la1":30.2992,"la2":30.254,"lo1":-89.0895,"lo2":-89.0443,"dy":0.0025,"dx":0.0025,"nx":19,"ny":19,"refTime":"2026-04-23T21:00:00:Z","depth":"4","parameterNumber":2,"parameterNumberName":"U-component_of_CURRENTS"},"data":[0,0,0,0.1462,0.1466,0.1644,0.1644,0.1809,0.181,0,0,0,0,0,0,0,0,0,0,0,0.1406,0.1407,0.1462,0.1466,0.1643,0.1644,0.1809,0.181,0,0,0,0,0,0,0,0,0,0,0,0.1405,0.1407,0.1408,0.1467,0.1643,0.1645,0.1808,0.1693,0,0,0,0,0,0,0,0,0,0,0.1529,0.149,0.1406,0.1408,0.1468,0.1643,0.1645,0.1688,0.17,0.1707,0,0.1737,0,0.1769,0.1818,0.1819,0,0,0,0.1478,0.1481,0.1517,0.1408,0.1469,0.1643,0.1567,0.1695,0.1708,0.1722,0.174,0.1746,0.1772,0.1819,0.182,0.1968,0.1969,0,0,0.1468,0.1449,0.1508,0.1526,0.1518,0.1561,0.1572,0.1704,0.1724,0.174,0.175,0.1775,0.182,0.1821,0.1968,0.1968,0,0,0,0.1432,0.1442,0.1478,0.1518,0.1552,0.1566,0.1579,0.1719,0.1728,0.1752,0.1777,0.1821,0.1822,0.1967,0.1968,0.2004,0,0,0,0.1427,0.1421,0.1473,0.1466,0.1549,0.1648,0.159,0.1719,0.1735,0.1776,0.1821,0.1824,0.1966,0.1967,0.2001,0.2034,0,0,0,0.1397,0.1418,0.1436,0.1464,0.1534,0.1647,0.1665,0.1724,0.1749,0.1819,0.1824,0.1966,0.1967,0.1999,0.203,0.2077,0,0,0,0.1374,0.1414,0.1437,0.1496,0.1533,0.1637,0.1665,0.1766,0.183,0.1822,0.1966,0.1968,0.1998,0.2028,0.2074,0.1811,0,0,0,0.1406,0.1418,0.1452,0.1476,0.156,0.1613,0.1721,0.1819,0.1853,0.1918,0.1923,0.2002,0.203,0.2076,0.1908,0,0,0,0,0.145,0.1471,0.1502,0.1561,0.1633,0.1723,0.1808,0.1857,0.1962,0.1897,0.2025,0.2042,0.2069,0.1908,0.1976,0.1975,0.1975,0.1975,0.1975,0.1456,0.1495,0.1555,0.1616,0.1687,0.181,0.1893,0.1976,0.1991,0.2052,0.2087,0.2171,0.2003,0.2096,0.2096,0.2096,0.2096,0.2096,0.2096,0.1483,0.1507,0.158,0.1655,0.1748,0.1847,0.1989,0.2041,0.2164,0.215,0.2174,0.1977,0.2101,0.21,0.2099,0.2099,0.2098,0.2098,0.2098,0.146,0.1475,0.1546,0.1648,0.1767,0.1889,0.2005,0.2128,0.2212,0.2261,0.2099,0.2213,0.2192,0.2278,0.2278,0.2279,0.2279,0.2279,0.2279,0.1398,0.1464,0.1522,0.1639,0.1709,0.1841,0.2038,0.2107,0.2222,0.2137,0.2289,0.2233,0.2227,0.2205,0.2285,0.2284,0.2283,0.2283,0.2282,0.1333,0.1387,0.145,0.152,0.1659,0.1726,0.1937,0.2008,0.2067,0.2055,0.2062,0.2071,0.2041,0.204,0.2009,0.2035,0.2032,0.2029,0,0.1275,0.1308,0.1378,0.1443,0.1507,0.1649,0.1663,0.1771,0.188,0.1819,0.2078,0.2084,0.2089,0.2051,0.2046,0.2006,0,0,0,0.1219,0.1255,0.1264,0.1353,0.1416,0.1503,0.1654,0.1634,0.1861,0.1839,0.1952,0.1972,0.2147,0.2302,0.2278,0.2271,0.2233,0,0]},{"header":{"parameterUnit":"m.s-1","parameterCategory":2,"la1":30.2992,"la2":30.254,"lo1":-89.0895,"lo2":-89.0443,"dy":0.0025,"dx":0.0025,"nx":19,"ny":19,"refTime":"2026-04-23T21:00:00:Z","depth":"4","parameterNumber":3,"parameterNumberName":"V-component_of_CURRENTS"},"data":[0,0,0,0.0227,0.0226,0.0187,0.0186,0.0113,0.0113,0,0,0,0,0,0,0,0,0,0,0,0.0242,0.0242,0.0227,0.0226,0.0187,0.0186,0.0113,0.0113,0,0,0,0,0,0,0,0,0,0,0,0.0242,0.0242,0.0242,0.0226,0.0187,0.0186,0.0114,0.0146,0,0,0,0,0,0,0,0,0,0,0.0186,0.0207,0.0242,0.0242,0.0226,0.0187,0.0186,0.0148,0.0144,0.0128,0,0.0132,0,0.0125,0.0108,0.0108,0,0,0,0.0215,0.021,0.0203,0.0242,0.0226,0.0187,0.0201,0.0146,0.0142,0.0123,0.0131,0.0129,0.0123,0.0108,0.0108,0.0088,0.0089,0,0,0.0217,0.0228,0.0206,0.02,0.0228,0.0203,0.02,0.0143,0.0142,0.0131,0.0127,0.0122,0.0108,0.0107,0.0088,0.0088,0,0,0,0.0231,0.023,0.0223,0.0203,0.02,0.0202,0.0199,0.0144,0.0144,0.0126,0.0121,0.0107,0.0106,0.0088,0.0088,0.0153,0,0,0,0.0232,0.0239,0.0225,0.023,0.0202,0.0175,0.0201,0.0148,0.0141,0.0122,0.0107,0.0106,0.0087,0.0088,0.015,0.0192,0,0,0,0.0242,0.0239,0.024,0.0231,0.0219,0.0176,0.0171,0.0146,0.0138,0.0108,0.0106,0.0087,0.0088,0.0148,0.0188,0.0207,0,0,0,0.0247,0.0258,0.024,0.0251,0.022,0.0214,0.0171,0.0155,0.0135,0.0107,0.0087,0.0088,0.0148,0.0185,0.0205,0.0221,0,0,0,0.0265,0.0261,0.0268,0.0251,0.0265,0.0218,0.0226,0.0179,0.0138,0.0101,0.0101,0.0151,0.0188,0.0207,0.0259,0,0,0,0,0.0276,0.0285,0.0286,0.0289,0.0274,0.027,0.0221,0.0199,0.0167,0.013,0.0146,0.0167,0.0177,0.0179,0.0091,0.0091,0.0091,0.0091,0.0091,0.0314,0.0311,0.0332,0.0329,0.0323,0.0301,0.0291,0.0252,0.0205,0.0202,0.0216,0.0272,0.0276,0.0202,0.0203,0.0203,0.0203,0.0204,0.0204,0.0354,0.0364,0.0371,0.039,0.0385,0.0386,0.0356,0.033,0.0312,0.0266,0.0272,0.0242,0.021,0.0209,0.0208,0.0207,0.0207,0.0206,0.0206,0.038,0.0383,0.0403,0.0433,0.0463,0.0453,0.049,0.0454,0.0382,0.039,0.0372,0.0314,0.0313,0.0388,0.0388,0.0388,0.0388,0.0389,0.0389,0.0384,0.0405,0.0446,0.0483,0.052,0.0568,0.0575,0.0563,0.0501,0.0458,0.0412,0.0333,0.0327,0.0323,0.0393,0.0392,0.0392,0.0391,0.0391,0.0371,0.0402,0.046,0.0509,0.0612,0.0655,0.0678,0.0643,0.0626,0.0578,0.048,0.0474,0.0451,0.0442,0.0441,0.0549,0.0549,0.055,0,0.0359,0.0381,0.0464,0.0554,0.0654,0.0704,0.0725,0.0707,0.0612,0.0598,0.0594,0.0483,0.0477,0.045,0.0443,0.0442,0,0,0,0.0333,0.0372,0.0422,0.0538,0.0663,0.0708,0.0729,0.0704,0.0638,0.0625,0.0562,0.0559,0.0492,0.0406,0.0357,0.035,0.034,0,0]}]]